Regional Weather Roundup
Issued by NWS Northern Indiana

Home | Current Version | Previous Version | Graphics & Text | Print | Product List | Glossary On
Versions: 1 2 3 4 5 6 7 8 9 10 11 12 13 14 15 16 17 18 19 20 21 22 23 24 25 26 27 28 29 30 31 32 33 34 35 36 37 38 39 40 41 42 43 44 45 46 47 48 49 50
350
ASUS43 KIWX 261010
RWRIWX

KIWX WEATHER ROUNDUP
NATIONAL WEATHER SERVICE NORTHERN INDIANA
600 AM EDT SUN MAR 26 2017

NOTE: "FAIR" INDICATES FEW OR NO CLOUDS BELOW 12,000 FEET WITH NO
SIGNIFICANT WEATHER AND/OR OBSTRUCTIONS TO VISIBILITY.

* THESE STATIONS ARE NOT UNDER NWS QUALITY CONTROL. THEY ALSO MAY NOT
  REPORT WEATHER SUCH AS PRECIPITATION OR FOG.

INZ001>027-261100-
NORTHERN INDIANA

CITY           SKY/WX    TMP DP  RH WIND       PRES   REMARKS
GARY*          LGT RAIN  52  52 100 SE14      29.88F
VALPARAISO     LGT RAIN  49  48  97 E10       29.91S FOG
MICHIGAN CITY* LGT RAIN  46  46 100 SE9       29.91F
LAPORTE*       DRIZZLE   46  45  97 E12       29.92S
KNOX*          CLOUDY    46  36  66 SE12      29.91S
SOUTH BEND     LGT RAIN  44  32  62 SE13      29.94S
GOSHEN         LGT RAIN  44  41  89 SE7       29.95F FOG
MONTICELLO*    LGT RAIN  50  49  95 E7        29.89F
LOGANSPORT*    RAIN      48  48 100 E7        29.92F
WARSAW*        RAIN      45  43  93 SE6       29.95S
ANGOLA*        CLOUDY    39  39 100 E6        29.97S
FORT WAYNE     LGT RAIN  43  41  93 E8        29.97F FOG
HUNTINGTON*    LGT RAIN  44  43  95 NE5       29.95F
PERU/GRISSOM   LGT RAIN  50  50 100 E8        29.91S
MARION*        CLOUDY    54  54  97 SE7       29.94F

$$
INZ028>050-261100-
CENTRAL INDIANA

CITY           SKY/WX    TMP DP  RH WIND       PRES   REMARKS
LAFAYETTE      LGT RAIN  56  56 100 SE7       29.88F
KOKOMO*        LGT RAIN  52  52 100 SE7       29.93S FOG
MUNCIE*        LGT RAIN  58  55  90 S8        29.95F
INDIANAPOLIS   LGT RAIN  56  56 100 SE10      29.91F

$$
MIZ043>046-050>051-056>058-064>065-071>073-077>080-261100-
SOUTHWEST LOWER MICHIGAN

CITY           SKY/WX    TMP DP  RH WIND       PRES   REMARKS
BATTLE CREEK   CLOUDY    41  40  96 E10       29.98F
BENTON HARBOR  CLOUDY    47  43  86 SE13      29.93S
COLDWATER*     CLOUDY    42  41  95 E9        29.98S
HILLSDALE*     CLOUDY    37  36  93 E10       29.99S
HOLLAND        LGT RAIN  43  41  93 E13       29.96F
GRAND RAPIDS   CLOUDY    40  38  93 E15       29.99F FOG
KALAMAZOO      CLOUDY    43  39  86 E7        29.97F
STURGIS*       LGT RAIN  42  41  97 E8        29.96S
THREE RIVERS*  CLOUDY    43  41  93 E6        29.97S

$$
OHZ001>008-015>018-024>025-261100-
NORTHWEST OHIO

CITY           SKY/WX    TMP DP  RH WIND       PRES   REMARKS
WAUSEON*       CLOUDY    39  37  93 NE15      30.01F
DEFIANCE       CLOUDY    39  36  89 NE9       30.00F
FINDLAY        CLOUDY    42  37  82 VRB6      29.99F
TOLEDO EXPRESS CLOUDY    38  36  92 NE9       30.02F
TOLEDO METCALF CLOUDY    39  37  92 N7        30.06R
LIMA           CLOUDY    43  40  89 NE3       29.99S

$$
AND FOR LAKE MICHIGAN COASTAL AND OPEN LAKE BUOY OBSERVATIONS

STATION/POSITION TEMP    WIND        PRES    VSBY  WAVE
                 AIR SEA DIR/SP/G                  HT/PER
                 (F)     (DEG/KT/KT) (MB)    (MI)  (FT/S)
CALUMET HARBOR    47     110/  8/ 10 1011.0F
MICHIGAN CITY     48     110/ 10/ 12   N/A
BURNS HARBOR      51     140/ 11/ 14 1012.5F

$$
&&




USA.gov is the U.S. government's official web portal to all federal, state and local government web resources and services.